Theta_e
309 310 310 310 310 310 310 310 310 310 310 310 310 310 311 311 311 311 311 311 311 311 312 312 312 312 312 313 313 314 315 315 315 315 315 316 316 316 315 314 314 314 314 313 314 314 315 315 316 316 316 317 317 319 320 321 320 319 327 327 325 329 327 327 323 317 319 319 317 317 317 316 316 316 316 317 317 317 317 317 317 316 317 317 316 316 316 317
310 310 310 310 310 310 310 310 310 310 310 310 311 311 311 311 311 311 311 311 311 311 312 312 312 312 312 313 313 314 315 315 315 315 316 316 315 314 314 314 314 314 314 314 314 314 315 316 316 317 316 317 318 320 320 321 319 321 327 326 328 333 325 321 319 316 317 317 318 317 317 317 317 316 316 316 316 316 316 316 317 317 317 316 316 316 316 317
310 309 310 310 310 310 310 310 310 310 310 310 310 310 310 311 311 311 311 311 311 311 311 312 312 313 313 314 314 314 315 314 315 316 315 314 314 315 315 315 315 315 315 314 314 314 316 316 316 317 317 317 318 320 321 321 321 321 322 325 332 329 320 318 318 317 317 317 317 317 317 317 317 317 316 316 315 316 316 316 317 317 317 316 316 316 316 317
309 309 309 309 309 310 310 310 310 310 310 310 310 310 310 311 311 311 311 311 312 312 312 313 313 313 314 314 314 314 314 315 315 316 315 314 315 315 315 315 315 314 314 314 314 314 316 316 316 316 317 317 318 320 321 320 321 321 321 326 328 320 318 320 319 319 317 317 318 317 318 317 317 317 316 316 316 316 316 316 316 316 316 315 316 316 317 317
309 309 309 309 309 309 309 310 310 310 310 310 311 311 311 311 312 312 312 312 313 313 313 313 314 314 315 315 316 316 316 316 317 316 314 314 314 314 315 315 315 314 314 314 314 314 315 316 315 316 317 316 316 318 320 321 321 320 320 322 321 318 319 320 319 318 317 317 318 317 317 317 317 317 316 316 316 316 315 315 316 316 316 316 316 316 317 317
309 309 309 310 310 310 310 311 311 311 311 312 312 312 312 312 313 313 313 314 314 315 315 316 317 317 318 318 318 318 317 316 317 316 315 315 315 315 316 315 314 314 314 314 314 314 314 315 315 315 316 316 316 317 318 319 319 321 321 318 318 318 318 318 318 318 317 316 317 317 317 317 316 316 316 316 316 316 315 315 315 315 316 316 316 316 316 316
310 310 311 311 311 311 311 311 312 312 312 312 313 313 314 314 315 316 316 317 318 318 318 318 318 318 317 317 317 317 317 318 318 318 317 316 316 316 316 315 314 314 314 314 314 314 314 314 315 315 315 315 315 316 316 317 317 320 321 319 319 319 317 318 318 317 317 316 317 317 317 316 316 317 316 316 316 316 316 316 316 316 316 316 316 316 316 316
312 311 312 312 312 312 312 313 313 313 314 315 315 316 317 318 318 319 318 318 318 317 317 316 316 315 315 315 315 315 316 319 320 320 319 318 318 317 316 314 314 314 314 314 314 314 315 315 315 315 315 315 315 316 316 315 316 317 319 318 318 318 317 317 316 316 316 316 316 316 316 316 316 317 316 316 316 316 316 316 316 316 316 316 316 316 317 316
315 316 316 316 316 315 316 316 316 316 317 317 318 318 318 318 317 317 316 315 315 314 314 314 314 315 315 316 315 315 317 320 321 321 321 319 318 316 315 315 314 314 314 314 314 314 316 315 315 316 316 316 316 316 315 316 317 316 316 316 315 315 315 316 315 316 316 315 315 314 314 315 315 316 316 316 316 317 317 316 316 316 316 317 316 316 316 316
317 317 317 317 317 317 317 317 317 317 317 317 317 316 316 315 315 314 314 314 314 315 316 316 316 317 317 318 316 316 319 320 320 320 320 319 317 316 316 315 315 315 314 314 314 315 316 315 316 316 316 316 315 315 315 315 316 315 314 314 314 314 315 315 315 315 315 314 314 314 314 314 314 316 316 316 317 317 317 316 316 316 316 316 316 316 316 316
316 316 316 316 316 316 316 316 316 316 316 316 315 315 315 315 315 315 315 316 316 316 317 317 318 318 319 320 317 317 319 319 319 319 319 318 317 317 316 316 315 315 314 314 314 315 316 316 316 316 316 316 314 314 314 314 315 314 314 314 314 314 314 314 314 314 314 313 314 314 313 313 313 315 316 316 317 317 316 316 316 316 317 316 316 316 316 316
316 316 316 316 315 315 315 315 315 315 316 315 315 315 315 315 315 316 316 317 317 317 318 318 319 320 320 319 319 318 319 319 319 319 318 318 318 317 316 316 315 315 315 314 315 316 316 316 316 316 316 315 315 314 314 314 314 314 314 315 315 314 314 314 313 314 313 313 314 314 314 315 315 316 316 316 317 316 316 316 316 316 316 316 316 316 316 316
316 316 315 315 315 315 315 315 315 315 315 315 315 315 315 316 316 317 317 317 318 318 319 319 320 321 320 319 319 319 319 319 319 318 318 318 318 317 316 315 315 315 315 314 315 316 317 316 316 316 316 315 315 314 315 314 314 315 314 314 316 315 316 315 313 315 314 313 314 314 316 319 318 315 316 317 317 316 316 316 317 317 316 316 316 316 315 315
314 314 314 314 314 315 315 314 314 314 314 315 315 316 316 317 318 318 319 319 320 319 320 320 321 321 320 319 319 319 319 319 318 318 318 317 317 317 316 315 315 315 314 314 315 316 317 317 316 316 315 315 315 314 315 314 314 314 313 315 316 316 319 318 313 315 315 313 314 314 317 320 319 316 316 318 317 316 317 317 318 318 317 316 315 315 315 315
313 313 314 314 314 314 314 314 314 314 315 316 316 317 318 318 319 320 320 321 320 320 321 320 320 319 318 318 319 319 319 318 318 318 317 317 317 316 316 315 315 314 314 314 314 316 317 317 316 316 315 314 314 314 316 316 317 315 314 320 320 317 320 319 314 314 315 314 313 314 318 319 317 315 316 318 318 317 317 317 318 316 316 315 314 315 314 314
312 313 313 313 313 313 313 314 315 315 317 318 319 320 320 320 321 320 321 321 320 321 320 319 319 318 317 318 319 319 318 318 318 317 317 317 316 316 316 315 315 314 314 314 314 315 315 315 315 314 314 314 314 315 317 319 320 319 315 319 321 318 318 318 317 315 313 315 313 313 317 318 317 315 316 318 317 317 316 316 316 314 315 314 314 314 314 313
312 313 313 313 313 313 314 315 316 317 319 321 322 322 321 320 320 320 321 320 320 320 319 318 318 317 316 317 318 318 318 318 317 317 317 316 316 315 315 314 314 314 313 313 313 313 313 313 313 314 314 314 315 315 318 319 321 322 319 318 320 319 317 319 322 317 313 316 315 314 314 315 316 315 315 317 316 316 315 314 315 314 314 314 313 313 312 312
313 313 313 313 314 315 317 317 319 320 321 323 324 322 321 321 320 320 321 321 320 319 318 317 316 318 320 318 318 318 318 317 317 316 315 315 315 314 314 314 315 314 314 313 313 312 313 312 313 316 314 313 314 313 317 320 320 322 322 320 321 320 318 319 321 319 317 318 318 318 316 315 315 314 313 316 316 315 314 314 315 315 314 313 312 310 309 309
313 313 313 314 315 317 318 319 321 322 322 324 324 322 321 320 320 321 321 321 320 321 321 318 316 320 322 319 318 319 319 318 317 316 316 315 315 315 315 315 315 315 313 315 315 312 312 313 314 316 316 315 314 313 315 318 318 320 320 320 320 319 319 319 319 318 318 318 319 319 319 317 317 317 314 315 316 315 314 314 314 314 313 311 310 308 308 307
314 314 314 316 318 319 320 321 322 323 323 324 323 321 321 320 322 322 320 319 320 321 322 319 318 319 320 319 320 320 320 319 318 318 318 317 316 316 316 314 314 314 314 318 319 312 312 317 317 317 318 317 315 314 313 314 315 316 317 318 319 319 320 319 319 319 317 317 321 320 319 318 318 319 316 315 316 315 314 314 313 312 311 310 308 307 307 306
314 315 316 318 319 320 321 321 322 323 323 323 321 321 320 320 322 321 318 319 320 320 320 320 320 319 319 320 320 320 320 320 319 319 318 318 316 316 315 314 315 315 315 316 317 313 313 318 319 318 318 317 316 315 313 314 315 315 317 319 320 322 321 319 318 318 315 316 322 321 318 318 318 318 316 315 315 314 313 313 311 311 310 308 307 306 306 306
315 316 317 318 320 321 322 321 321 321 321 321 320 320 320 319 320 319 317 317 319 320 320 320 321 320 320 320 320 320 320 319 318 318 318 316 316 316 315 315 316 318 317 315 316 315 315 318 319 317 315 316 316 315 315 317 317 318 320 320 321 322 321 321 321 318 315 316 322 322 318 318 318 317 315 314 314 312 312 312 310 310 309 307 306 306 306 306
316 317 318 319 320 321 321 320 320 320 320 320 320 320 320 320 320 318 317 316 317 320 320 320 320 320 320 320 320 320 319 319 318 318 318 316 315 315 315 315 316 318 318 317 318 318 318 319 318 314 314 315 316 316 317 318 318 321 321 320 322 321 319 323 324 320 317 316 319 320 318 319 317 317 316 313 312 311 310 310 309 308 307 306 306 306 306 306
316 317 319 320 321 321 321 319 319 320 320 320 320 320 321 321 320 318 316 315 317 319 319 319 319 319 319 318 319 319 318 318 318 318 318 317 316 315 315 314 316 317 317 317 317 319 320 319 315 314 316 317 317 318 319 319 320 323 323 321 322 321 320 321 322 321 320 321 322 318 321 326 321 317 317 312 310 310 309 309 308 307 306 305 305 305 305 305
317 318 320 320 321 322 320 319 319 320 321 320 320 321 321 320 319 317 315 317 319 319 318 319 318 318 318 317 318 318 316 316 317 316 317 316 316 315 315 314 315 317 317 317 317 318 318 316 316 318 319 319 319 320 321 322 322 324 326 324 321 322 321 322 323 323 322 324 324 317 323 332 325 320 320 314 310 310 309 308 307 306 305 305 304 304 303 304
318 319 320 321 322 322 320 319 320 322 321 321 321 321 321 320 318 316 316 319 322 321 319 318 318 317 315 315 316 316 316 316 315 316 316 315 315 315 316 316 316 317 319 318 318 319 319 317 318 321 322 321 321 322 323 323 321 322 325 324 324 322 321 323 322 322 323 324 321 317 321 326 322 320 322 315 310 310 308 307 306 305 305 304 303 303 303 303
318 319 320 321 322 322 322 321 321 322 321 322 322 321 321 320 318 316 318 323 326 322 319 317 317 316 314 313 313 315 319 317 314 315 315 315 315 314 315 317 317 318 317 316 321 323 319 318 319 320 322 322 321 323 325 323 322 324 323 322 324 321 320 321 318 319 323 322 319 318 318 319 319 320 318 314 310 310 308 307 306 305 304 303 302 302 302 303
318 319 320 321 321 322 323 322 322 321 321 321 321 320 321 319 317 316 320 327 327 320 318 315 314 314 312 312 313 314 316 314 314 315 314 315 315 313 314 316 316 317 314 315 323 324 319 319 321 321 322 322 325 326 325 322 322 326 322 318 320 318 318 319 316 319 321 318 320 321 317 317 323 324 316 313 312 310 308 307 305 304 303 303 302 302 301 301
318 319 320 321 322 323 322 321 321 320 320 320 320 321 320 318 316 316 321 326 324 317 316 314 313 313 311 311 313 312 311 311 313 313 313 314 314 313 314 314 312 314 314 315 322 324 319 318 319 322 323 322 326 326 325 323 322 320 317 318 321 319 318 317 316 318 318 317 322 323 319 317 326 328 317 313 315 311 308 307 304 304 303 302 302 301 301 301
318 319 321 322 322 321 321 321 320 320 319 319 320 321 319 318 319 321 324 324 320 317 314 313 314 313 311 312 313 312 310 310 311 312 312 312 313 312 312 312 310 313 319 319 321 320 316 313 313 318 320 319 321 319 317 320 317 315 316 320 323 323 321 318 319 320 317 321 325 323 320 317 323 328 317 313 315 311 307 306 304 303 302 301 301 300 300 300
319 320 321 322 321 320 320 321 320 320 319 318 320 319 318 320 321 324 325 321 318 318 314 314 315 312 312 316 315 312 311 311 311 312 313 313 313 312 312 313 312 316 323 323 320 317 314 314 315 315 315 315 317 316 314 315 314 315 321 322 321 324 324 319 321 322 319 325 330 325 320 316 321 327 317 311 313 309 306 305 303 302 301 301 300 300 300 300
319 320 321 321 321 321 321 320 320 319 318 319 319 318 320 322 322 323 323 321 322 322 317 317 317 315 317 320 319 315 313 313 311 312 316 316 316 314 315 320 319 319 323 324 323 319 318 319 316 314 314 313 317 319 317 318 317 318 321 318 317 322 324 322 322 322 321 325 328 323 319 318 321 320 312 309 309 308 306 304 303 302 301 300 300 300 300 301
319 320 321 321 321 321 320 320 319 318 318 319 318 318 321 322 321 321 322 323 324 321 318 319 318 318 319 319 320 319 318 317 313 312 316 317 317 317 317 321 322 319 320 322 323 322 322 322 316 314 315 314 316 318 319 322 319 316 317 319 320 321 321 322 322 318 318 322 323 318 315 320 322 314 307 306 305 305 304 303 302 302 301 300 299 300 300 301
318 319 320 320 320 320 320 319 319 318 318 319 318 319 320 321 321 320 321 323 321 319 319 320 319 319 319 319 320 321 321 322 317 313 317 317 318 320 319 318 318 318 318 319 320 320 322 323 320 319 318 315 315 315 321 327 319 314 319 321 322 325 322 320 320 317 318 323 323 318 315 323 325 313 305 304 302 302 303 302 302 301 300 300 299 299 300 300
317 317 317 318 318 319 319 319 319 318 318 318 318 320 320 320 321 321 322 322 320 319 318 318 320 320 321 321 321 319 319 321 319 317 320 320 320 322 323 319 317 317 318 320 321 318 318 322 321 317 314 315 316 314 318 324 320 316 318 318 320 326 324 320 320 319 319 322 322 321 320 319 315 308 304 303 302 302 302 301 301 300 300 300 299 299 299 299
317 317 317 317 317 317 317 318 318 318 318 318 318 320 319 319 322 323 322 320 319 320 319 319 320 321 322 323 322 319 316 318 320 319 321 321 320 322 322 320 318 317 318 321 322 317 316 320 319 314 313 314 314 315 314 317 321 319 317 321 324 323 320 320 321 319 317 318 319 320 320 313 309 307 305 303 303 302 302 301 301 300 300 299 299 299 298 298
318 317 317 317 317 317 317 318 318 317 318 317 318 319 318 318 320 320 319 317 317 318 318 321 321 321 322 322 322 320 317 318 319 319 322 322 318 319 319 317 316 316 318 318 320 319 317 318 319 317 318 314 309 311 313 312 317 320 319 322 322 318 318 320 320 319 317 317 317 316 316 314 314 313 306 303 305 304 302 302 300 300 300 299 299 298 298 298
317 316 316 317 317 317 317 317 317 317 318 317 318 318 318 319 317 316 316 316 316 317 318 320 320 319 321 321 321 320 318 319 320 319 322 321 317 318 317 316 315 314 314 314 317 321 318 317 319 318 318 316 311 313 317 314 313 316 317 318 317 317 321 320 318 320 318 316 317 319 318 316 317 314 306 304 305 304 303 303 301 300 300 299 299 299 298 298
316 315 314 315 316 316 316 316 316 316 318 318 318 318 317 318 316 315 316 315 316 318 319 319 319 318 319 319 320 319 318 320 320 319 319 318 317 316 315 317 316 311 312 314 317 321 320 318 319 317 315 317 316 317 321 320 314 312 314 316 317 318 319 318 318 321 319 316 317 318 318 318 317 313 307 305 305 304 303 303 302 301 300 300 300 299 298 298
313 312 312 314 315 314 313 314 314 315 317 317 317 316 316 315 315 315 316 315 315 317 318 319 318 318 318 318 318 318 318 320 320 319 318 317 317 316 317 319 318 313 311 313 317 320 320 317 318 319 316 316 318 319 321 322 317 315 316 316 316 317 318 316 316 318 319 317 317 316 316 318 315 310 306 305 304 304 303 303 303 301 300 301 300 299 299 298
311 311 311 312 313 312 311 311 313 314 316 315 314 314 314 314 314 314 315 315 315 316 316 317 318 318 317 317 317 317 316 318 318 317 317 317 316 316 316 315 315 315 315 316 318 318 317 317 320 320 317 317 321 319 317 319 319 318 319 318 317 317 316 316 316 317 317 316 316 315 316 318 313 308 307 305 304 303 302 302 302 301 301 300 299 299 299 298
309 309 310 311 312 311 309 310 311 312 313 313 312 312 312 312 313 313 314 315 315 315 315 316 317 317 317 317 317 316 316 317 316 316 316 316 316 316 313 311 311 313 316 318 318 314 313 316 319 318 317 317 319 316 312 313 317 318 318 317 317 315 314 314 315 316 316 315 314 315 316 316 311 307 307 305 304 304 303 302 302 300 300 300 299 299 298 297
307 308 310 310 310 309 308 309 310 310 311 311 311 311 311 312 312 313 313 314 314 315 314 315 315 315 315 316 315 316 316 316 315 315 316 317 317 314 310 310 310 311 314 316 316 313 313 316 317 317 317 316 315 315 313 312 314 316 315 314 315 314 313 314 314 314 315 314 313 314 314 314 311 305 302 301 302 303 303 303 302 300 300 300 299 298 297 296
305 306 308 309 308 307 308 309 310 310 310 309 309 310 310 310 311 312 313 313 314 315 314 314 314 314 315 314 314 315 315 315 315 314 315 318 316 310 307 309 310 310 312 315 315 313 313 314 315 315 316 314 313 314 314 315 315 314 313 313 313 312 312 312 312 313 313 312 312 313 312 314 313 307 302 302 303 303 302 302 302 301 300 300 299 298 297 295
303 304 305 306 306 307 308 309 309 309 309 309 309 309 309 309 310 311 312 312 313 313 314 314 314 313 314 314 313 314 314 314 315 314 316 318 314 307 306 309 309 309 310 311 311 312 313 314 314 313 313 313 312 311 312 314 313 312 312 313 312 311 311 311 311 311 312 312 312 311 311 312 312 309 307 305 304 304 303 301 301 301 300 300 299 298 296 295
303 304 305 305 305 306 307 308 308 308 309 309 309 309 308 309 309 309 310 311 311 312 312 313 313 313 314 314 313 313 314 314 314 314 315 316 312 307 306 307 307 307 308 308 308 311 313 313 313 313 312 311 311 310 310 311 310 309 310 311 310 310 310 310 310 310 310 309 308 308 309 309 308 308 306 305 305 306 304 300 300 300 300 299 298 297 296 295
301 303 304 305 306 306 306 307 307 307 308 308 308 309 308 309 308 308 309 310 311 312 311 311 312 313 313 313 313 313 313 313 312 312 313 313 310 307 305 306 306 306 306 307 307 310 312 311 311 312 311 311 311 309 308 308 308 309 309 309 308 308 307 308 308 308 308 307 307 307 307 306 305 304 303 303 304 305 303 300 299 299 299 298 298 297 296 295
301 301 302 303 305 305 306 307 306 306 307 307 308 308 308 309 308 308 309 310 310 311 312 311 312 312 313 313 312 312 313 312 311 310 311 312 310 308 306 305 305 305 305 306 307 309 311 311 310 310 310 310 309 307 307 307 306 306 307 307 306 305 305 304 305 306 306 306 306 305 305 304 303 302 303 302 301 301 301 300 300 299 298 298 297 296 295 295
299 300 300 300 302 303 304 306 306 306 305 306 307 307 307 308 308 308 309 311 311 311 311 311 311 311 312 311 310 310 311 311 311 310 310 311 310 309 308 307 305 304 304 305 305 306 309 309 307 307 308 308 306 305 305 305 304 303 303 304 304 303 303 302 302 304 305 304 304 304 304 303 303 302 302 300 299 298 298 298 298 297 296 295 294 293 293 293
298 298 298 299 299 300 301 304 306 306 305 305 306 306 306 307 307 307 307 310 312 311 310 310 311 311 311 310 309 309 309 310 311 310 310 310 309 308 309 308 306 303 303 305 304 303 306 307 304 303 306 306 304 303 304 303 302 301 301 301 301 300 300 300 300 301 302 302 302 302 302 302 301 299 298 297 297 296 296 295 294 294 293 293 293 292 292 292
297 297 297 298 299 300 300 302 304 305 305 304 305 305 305 306 306 306 307 307 308 310 309 309 310 310 309 308 309 308 306 306 307 305 305 306 306 306 307 306 304 303 304 305 304 304 305 306 304 303 305 305 302 301 302 302 301 300 300 299 299 298 298 299 299 300 300 299 300 300 299 300 300 297 295 295 294 294 293 293 293 292 292 292 292 292 292 292
296 296 296 296 298 299 300 301 304 305 305 304 304 304 304 305 304 305 306 305 304 306 307 307 307 308 307 307 307 306 304 303 303 302 301 302 302 302 303 303 303 303 304 304 304 305 305 305 305 305 304 302 300 300 301 301 300 299 298 298 298 298 298 298 298 299 299 298 299 299 299 300 301 299 297 295 293 292 293 293 292 292 292 292 292 292 292 292
Wind_Speed
3 3 3 3 3 3 3 3 3 3 3 3 4 4 4 5 5 5 6 6 7 7 8 9 9 10 10 11 12 13 14 15 17 18 20 15 8 5 2 1 1 2 3 4 2 2 3 2 2 1 1 2 1 3 2 3 4 2 3 3 2 3 3 4 3 3 2 4 5 5 4 3 3 7 9 5 8 14 16 20 25 23 22 22 23 23 23 24
4 4 4 4 4 4 4 4 4 4 5 5 5 6 6 6 7 7 8 8 9 9 10 10 11 11 12 13 13 15 16 17 19 19 13 5 3 6 7 4 3 4 4 5 3 2 3 2 2 1 2 3 2 4 4 4 5 4 2 2 4 5 5 6 6 8 6 4 9 9 7 5 4 9 12 6 9 13 12 19 25 27 28 24 21 19 18 17
5 5 5 5 5 5 5 6 6 6 6 7 7 7 8 8 8 9 9 10 10 11 11 12 12 13 14 14 15 16 17 19 20 12 2 5 8 8 5 4 8 8 6 5 3 3 4 2 3 4 5 5 5 6 6 5 5 7 5 2 6 7 6 13 14 14 14 11 8 8 7 8 10 13 12 8 12 12 10 16 20 25 31 27 20 17 18 18
6 6 6 6 7 6 7 7 7 8 8 8 9 9 9 9 10 10 11 11 12 13 13 14 14 15 16 16 16 16 17 18 13 3 3 6 6 3 3 9 13 11 6 5 5 4 6 3 4 5 7 5 6 8 7 8 7 6 7 4 7 6 5 13 16 18 20 14 9 11 10 11 14 14 12 11 10 8 13 21 22 26 32 31 25 22 23 24
7 7 7 8 8 7 8 8 8 9 9 9 10 10 10 10 11 12 12 13 14 14 15 16 16 17 17 17 16 15 13 9 2 3 3 5 3 4 10 14 14 11 6 6 5 5 7 7 6 5 6 5 4 4 6 14 12 4 7 11 11 7 5 12 16 17 18 15 13 12 9 11 14 13 14 12 8 12 21 26 26 29 33 32 29 27 26 26
8 8 8 8 8 9 9 9 9 10 10 11 11 11 11 12 13 13 14 15 15 16 16 16 16 17 16 16 15 13 7 2 3 3 5 7 9 13 15 17 13 9 7 7 6 6 7 7 7 6 5 4 4 5 8 15 14 6 6 12 16 15 9 13 18 20 20 16 12 10 12 14 13 14 16 14 17 27 33 32 31 31 32 32 31 30 29 27
9 9 9 10 10 10 10 10 11 11 12 12 12 13 13 13 14 14 15 15 16 16 16 16 15 15 15 14 14 10 7 10 10 9 11 13 14 15 15 16 11 7 6 8 8 8 7 6 8 9 5 4 6 8 11 13 11 9 6 8 15 16 13 16 19 20 19 14 14 14 16 16 10 11 14 17 27 35 33 30 31 30 28 28 29 27 25 24
10 10 10 10 11 11 11 11 12 12 13 13 13 14 14 14 14 15 15 15 15 15 15 14 14 14 13 12 11 8 10 13 13 11 13 12 13 14 13 11 7 6 6 8 10 8 6 5 9 9 4 4 5 6 8 9 5 7 5 5 7 10 12 16 18 20 21 20 22 17 17 19 16 15 15 23 33 32 27 26 25 24 22 21 22 22 20 20
11 11 11 11 11 11 11 12 12 13 13 14 14 14 14 14 14 14 14 14 14 13 14 13 13 13 12 12 10 7 11 12 10 8 9 9 11 11 10 9 6 6 6 8 10 9 8 7 8 8 4 3 5 7 6 4 3 3 5 6 6 9 13 17 19 23 26 27 25 14 15 23 21 15 15 26 29 25 25 25 24 22 21 18 18 20 20 20
12 12 11 11 11 11 12 12 13 13 13 14 13 14 13 13 13 13 13 13 13 12 13 13 13 12 12 12 6 5 10 9 7 7 7 8 10 10 10 9 8 8 7 8 11 12 11 9 8 6 5 5 3 5 6 2 4 6 9 10 12 13 17 20 20 29 30 25 25 13 12 24 20 6 9 24 25 24 28 28 27 24 23 21 19 20 20 20
12 12 11 11 11 11 12 12 12 13 13 13 13 13 13 13 13 13 13 13 13 13 13 13 13 13 13 13 8 9 11 10 8 9 10 11 11 12 13 12 11 11 9 9 11 13 13 12 11 7 4 3 2 6 8 6 6 9 11 10 14 15 19 22 20 29 25 15 22 15 11 21 12 3 15 27 25 25 29 29 28 24 23 23 20 19 18 20
12 12 11 11 11 11 11 12 12 12 13 13 12 13 12 13 13 13 14 14 14 13 14 14 14 14 13 14 16 16 16 14 13 14 14 15 16 16 16 16 14 12 12 11 12 14 14 14 13 9 5 3 2 5 6 7 8 11 9 5 11 10 12 21 20 25 18 8 16 10 4 12 5 10 23 26 25 25 26 26 24 21 20 18 17 19 17 17
12 12 11 11 11 11 11 11 12 12 13 13 13 13 13 13 13 14 14 13 14 13 13 14 14 15 13 14 19 18 15 14 14 15 16 16 18 18 18 16 13 11 12 12 13 14 14 16 15 11 9 5 3 5 7 10 9 10 6 1 6 6 6 17 16 16 12 6 12 10 2 8 8 17 24 21 23 20 17 19 21 22 22 19 21 19 12 9
12 12 11 11 11 11 11 11 12 12 12 13 13 13 13 13 13 13 13 13 13 12 13 13 14 14 12 15 18 17 15 15 14 15 15 16 18 18 17 14 11 10 11 11 13 14 14 15 15 12 10 8 7 9 9 8 6 5 4 0 2 2 5 13 11 7 5 3 12 14 3 7 8 16 20 17 18 17 18 23 27 28 25 24 22 11 10 14
12 11 11 11 11 11 10 11 11 12 12 12 13 13 13 13 13 13 12 12 12 12 13 13 13 11 11 16 17 14 13 13 14 14 13 14 15 16 15 12 10 9 9 11 13 14 13 12 11 9 7 8 8 6 4 4 3 2 2 3 2 4 4 11 13 8 4 2 8 10 3 6 6 15 18 15 18 21 23 28 29 26 25 23 13 7 12 14
12 11 11 11 10 10 10 11 11 11 11 12 12 13 13 13 12 12 13 13 12 13 12 11 11 8 7 12 12 9 9 10 11 10 10 11 12 13 11 8 6 6 8 11 12 13 13 10 7 5 5 5 4 1 3 4 4 2 3 4 4 4 3 5 10 5 4 4 1 3 3 4 5 11 15 16 21 23 24 30 28 23 21 12 8 13 14 14
11 11 11 10 10 10 10 11 11 11 11 11 12 12 12 13 12 12 13 12 13 13 11 9 8 7 9 12 11 10 10 10 9 8 9 10 10 9 7 5 4 5 6 8 11 11 10 8 5 3 4 3 2 4 3 2 4 4 2 4 4 5 4 3 7 5 4 5 3 5 4 6 7 10 16 20 24 26 25 25 25 23 13 13 18 18 18 17
11 11 11 10 10 10 10 10 10 10 10 10 12 13 12 13 12 13 14 13 13 11 8 8 6 3 7 9 8 9 9 8 7 6 7 7 6 5 4 4 4 4 5 5 7 7 6 6 5 2 1 2 1 4 3 4 5 4 4 4 4 4 4 5 5 4 2 1 4 5 6 8 8 11 19 25 27 25 20 17 20 14 10 21 22 23 23 22
11 11 11 10 9 9 10 9 9 10 10 9 11 13 13 12 12 11 11 11 10 6 4 6 8 3 4 6 9 10 9 8 7 7 8 8 7 7 7 6 6 6 6 3 3 9 9 3 3 2 2 4 5 7 9 10 8 7 7 5 5 5 5 6 6 5 4 4 5 7 8 7 8 9 14 26 27 19 15 14 9 7 21 24 24 26 26 26
11 11 10 9 9 9 9 9 9 9 10 9 9 11 10 7 6 5 6 8 9 9 9 10 12 14 15 15 14 10 10 11 11 11 12 11 9 9 9 8 7 6 4 4 4 9 10 4 2 5 6 9 11 12 13 10 8 7 6 6 6 5 5 5 6 6 3 3 5 7 6 6 8 8 13 27 25 16 16 8 11 21 24 24 26 27 27 29
11 10 10 9 8 8 8 8 8 8 9 8 8 8 5 3 2 3 6 9 12 14 17 19 19 22 24 23 20 17 17 15 14 14 12 11 9 8 10 10 6 3 5 5 4 4 8 5 5 9 11 12 13 11 10 7 7 7 6 6 5 5 6 6 6 7 3 2 5 4 6 6 8 9 17 24 17 13 10 7 21 23 24 25 27 27 28 30
11 10 10 10 8 8 8 8 7 7 7 7 7 5 3 2 3 6 7 9 15 17 18 20 23 26 27 26 25 24 21 15 12 13 11 10 10 8 9 9 5 4 4 3 4 3 4 4 8 13 13 10 9 7 7 8 7 6 5 3 4 4 3 5 5 4 2 1 5 5 6 7 9 11 17 18 9 11 13 19 21 23 25 24 25 28 29 31
11 11 10 9 8 8 8 8 7 6 5 5 5 3 2 3 4 8 8 7 13 16 17 21 24 27 27 24 22 20 18 13 10 12 13 12 12 11 9 9 5 4 4 4 5 5 4 5 13 17 11 7 8 8 7 7 6 5 5 4 5 4 1 4 5 4 3 2 3 4 5 6 7 11 12 8 12 19 25 29 26 26 27 26 26 28 30 32
12 11 10 8 8 9 8 7 5 4 5 4 3 2 2 4 6 9 9 6 7 11 18 22 21 19 17 15 15 14 12 9 7 8 12 15 14 11 9 10 8 4 5 7 9 9 6 8 14 12 7 7 8 8 7 6 5 4 5 5 5 5 4 5 4 5 5 4 1 2 5 4 6 9 6 9 18 18 21 26 27 25 26 28 29 30 31 32
12 10 8 7 8 8 8 6 5 4 4 2 0 1 2 4 6 8 7 4 4 7 12 13 10 8 9 9 10 10 6 5 7 7 10 16 16 8 6 10 8 4 6 8 8 8 7 9 11 6 5 6 7 7 6 5 3 4 4 7 8 7 6 4 2 5 4 5 3 3 4 5 5 6 5 5 11 10 13 18 19 19 22 26 28 28 29 30
12 10 8 8 7 8 7 6 4 3 2 2 2 0 2 3 4 7 5 2 3 4 4 4 4 3 5 5 7 8 3 3 6 8 11 16 15 8 3 5 6 4 6 5 3 3 5 9 8 6 7 6 6 6 5 6 3 3 4 5 5 5 3 1 3 3 1 2 4 2 2 5 4 5 7 5 10 7 9 11 13 16 19 22 24 25 27 30
12 11 10 9 8 8 8 6 5 5 3 3 2 1 2 2 2 4 3 2 3 2 3 2 2 2 3 5 8 8 2 2 5 8 14 15 12 8 3 3 3 3 3 2 0 3 4 5 3 3 4 4 5 6 5 7 6 3 5 4 6 5 4 3 2 1 3 3 5 1 4 4 4 6 6 7 12 6 7 7 9 14 17 20 21 22 25 28
13 11 11 11 10 11 11 9 7 5 3 3 2 2 2 2 1 1 2 1 2 2 3 1 1 3 4 6 9 6 2 4 4 5 13 13 9 6 3 3 3 2 3 3 3 5 2 4 4 5 4 3 5 6 5 8 5 6 6 5 6 5 5 3 3 2 3 1 5 5 4 3 5 5 2 9 9 5 6 6 6 11 15 18 20 20 22 24
13 12 12 12 11 11 11 11 9 6 4 3 3 3 1 0 1 2 2 2 1 2 2 1 1 3 5 5 6 4 2 3 1 4 9 9 9 5 1 3 1 2 5 3 5 6 0 3 5 6 5 5 6 4 3 7 4 4 4 4 4 2 2 1 3 3 1 1 4 6 4 3 5 5 1 6 6 6 6 5 6 11 14 17 19 20 22 23
13 12 12 11 11 10 11 11 9 6 4 3 3 3 1 2 2 2 2 2 1 1 2 2 1 3 5 3 2 3 3 2 3 5 4 3 8 5 1 2 1 1 2 2 2 6 1 1 1 4 5 6 4 1 2 5 5 4 5 4 6 5 3 3 2 4 3 2 6 8 8 6 4 4 2 2 4 9 10 7 7 10 14 16 16 19 20 21
13 12 11 11 11 10 10 10 8 6 5 3 3 3 3 2 2 2 4 1 1 1 3 2 1 3 4 2 2 3 2 3 5 6 3 1 4 2 1 1 1 3 3 4 3 4 1 0 2 4 7 5 5 2 2 3 3 6 5 4 4 5 4 5 4 3 2 4 7 7 7 7 5 4 2 4 1 9 11 10 10 10 13 15 16 18 19 20
13 12 10 10 10 10 9 8 6 5 4 3 4 4 3 2 0 3 3 2 1 2 2 2 2 3 3 1 3 4 3 3 6 6 3 3 3 2 2 3 3 2 3 3 2 4 2 4 4 2 3 5 5 2 2 5 4 5 4 4 2 3 2 2 2 0 2 6 6 3 3 4 5 3 3 5 4 6 8 11 14 15 16 16 16 17 18 19
14 12 10 10 10 10 9 7 5 5 3 5 6 5 4 1 3 4 3 1 1 1 1 1 1 1 1 2 2 3 2 2 6 5 4 4 3 4 4 5 5 2 2 4 2 3 3 5 2 1 3 5 7 4 2 2 1 4 4 4 4 2 1 2 3 2 3 5 5 2 2 1 4 1 4 5 5 9 15 18 19 19 19 18 17 17 18 18
14 12 10 11 11 11 10 8 8 7 6 8 8 5 3 4 3 3 5 5 2 1 2 2 2 1 2 0 2 2 1 2 4 5 3 4 3 3 4 5 5 3 2 3 1 2 2 5 3 5 2 6 9 6 6 4 3 5 5 5 5 4 4 3 4 3 3 4 5 3 1 2 3 1 3 4 8 14 20 20 20 20 18 17 17 17 16 16
14 13 12 12 11 11 10 10 10 9 10 11 7 2 5 5 2 2 4 4 1 1 2 2 3 2 3 2 2 1 2 2 1 3 2 4 4 4 4 4 7 6 3 2 2 3 4 5 5 3 2 8 7 5 5 6 1 3 3 4 2 4 5 2 4 5 3 3 4 2 2 1 3 2 3 6 9 13 16 17 18 17 16 16 16 15 15 14
15 15 15 14 14 14 13 13 11 11 13 12 5 3 7 4 2 3 2 1 1 2 1 2 2 2 2 2 3 3 2 2 1 1 1 3 4 5 5 3 5 8 6 4 3 2 2 5 3 1 0 5 5 2 3 3 1 1 3 3 4 4 5 2 3 1 2 2 4 3 2 1 2 1 2 5 6 7 9 11 13 14 15 15 15 14 13 11
16 16 17 17 17 16 16 16 13 14 16 10 4 6 4 2 4 4 1 1 1 2 2 1 0 2 3 1 2 3 1 1 1 1 2 3 3 4 5 2 1 4 7 5 3 3 3 4 4 2 2 3 2 1 2 1 2 3 2 4 3 1 3 3 0 2 1 4 4 2 4 3 2 2 1 3 4 5 5 6 10 11 13 13 13 12 10 9
16 17 18 19 19 17 16 16 16 17 15 7 7 8 3 2 6 5 3 2 2 1 2 2 3 2 3 2 2 3 2 1 1 2 2 2 3 4 5 2 2 2 2 5 3 2 2 2 6 2 3 2 1 2 2 4 3 4 3 2 1 1 2 1 1 2 3 5 4 5 6 5 4 4 5 7 8 8 6 6 7 8 11 13 12 11 9 7
16 14 14 18 20 18 17 16 18 18 12 5 8 9 3 3 7 8 8 4 1 2 2 4 4 1 2 3 3 3 3 3 3 2 1 2 4 2 2 2 1 4 4 5 4 1 1 1 5 3 1 1 3 3 2 3 3 3 2 2 1 3 3 2 2 3 3 4 4 5 6 4 4 5 10 12 11 10 9 6 6 9 14 14 13 12 10 8
12 8 8 13 16 16 17 16 16 15 7 3 6 4 1 1 7 14 17 10 2 3 3 3 4 4 4 3 3 3 3 4 5 3 2 3 3 2 1 1 1 1 5 5 3 1 2 2 4 4 3 1 1 1 5 5 1 2 1 1 1 1 1 2 2 3 3 4 4 5 6 5 3 3 9 13 11 10 10 8 7 13 17 15 14 13 11 9
9 4 5 9 10 12 17 16 10 8 4 3 3 1 1 2 3 8 16 16 9 7 6 4 4 6 5 5 5 3 3 3 4 3 3 4 4 3 1 1 1 2 2 5 2 1 0 2 3 3 2 1 4 4 5 5 5 4 3 3 2 2 1 2 4 2 2 3 3 4 6 5 3 1 5 10 9 9 12 12 11 15 19 17 15 13 11 9
9 4 4 9 10 12 17 12 6 6 4 4 4 3 5 5 3 4 9 13 11 9 8 6 5 6 5 6 5 3 4 4 4 5 4 4 6 4 2 2 1 1 3 2 1 1 2 3 1 3 4 5 6 4 3 5 6 5 1 2 3 3 3 3 5 2 0 1 1 1 3 2 1 2 1 6 9 12 17 17 14 16 18 16 14 12 10 9
9 7 6 8 11 17 15 5 5 6 4 4 4 5 7 5 4 5 7 9 9 7 7 6 6 7 7 6 6 5 5 4 5 7 5 4 4 3 2 3 2 2 3 2 1 0 3 3 1 3 4 3 4 4 4 3 4 3 1 1 2 3 3 4 4 2 0 2 2 1 3 2 0 1 3 7 9 12 15 13 11 14 15 13 11 10 8 8
8 9 9 8 14 21 13 4 5 7 6 6 4 6 9 8 8 7 6 8 8 6 5 6 6 8 7 6 6 6 6 5 6 7 6 4 3 2 2 1 2 1 1 1 2 2 1 1 2 0 3 4 4 3 4 4 3 3 1 2 2 3 3 2 1 1 2 5 6 5 4 2 1 1 2 4 5 7 9 9 8 12 15 13 11 9 8 8
5 6 8 11 20 23 14 6 5 5 7 9 7 8 9 8 11 13 9 9 10 8 5 5 8 8 6 5 6 6 7 6 5 4 3 3 1 2 2 0 3 3 1 1 5 6 3 2 3 3 5 7 6 3 1 1 1 1 1 3 3 4 5 2 1 2 3 4 5 5 4 3 3 3 4 3 3 5 9 10 10 12 14 13 12 9 8 8
5 4 4 9 20 25 20 13 6 3 4 6 6 7 10 8 8 11 11 10 13 12 7 5 7 6 5 6 6 6 7 7 5 2 1 2 1 0 2 3 4 5 4 4 5 5 2 1 3 6 7 9 6 3 3 3 1 2 4 5 5 5 6 4 3 4 3 1 3 6 5 4 8 9 5 4 5 6 8 11 15 16 14 14 12 10 9 9
5 2 4 7 11 17 19 17 12 5 3 5 4 4 8 9 6 8 11 11 13 15 8 4 6 6 6 8 8 6 6 5 4 3 3 3 1 1 1 3 5 5 5 4 3 3 3 1 4 5 6 8 5 2 2 3 2 5 6 7 7 6 5 5 5 4 2 1 6 9 6 5 9 12 7 4 6 5 6 9 14 16 15 13 11 10 10 10
6 2 5 8 6 7 10 14 15 10 6 7 4 3 6 8 5 6 8 9 12 15 9 4 7 9 7 7 7 5 6 6 5 4 4 4 2 1 1 1 2 3 3 2 2 3 4 3 4 3 4 7 4 2 3 3 2 4 5 7 9 9 7 5 5 5 5 6 9 10 9 9 11 11 7 4 6 7 8 11 11 12 12 12 10 9 9 8
8 5 6 6 4 4 6 11 16 14 12 10 6 6 8 7 5 5 4 3 6 10 9 6 7 8 8 7 6 4 5 6 5 5 4 4 4 4 2 1 1 2 3 2 1 2 3 2 2 2 3 6 3 3 4 3 1 3 5 8 11 12 8 4 5 8 8 8 10 9 10 12 12 7 5 6 6 3 6 7 9 11 12 11 10 8 7 6
7 4 5 3 3 4 5 8 13 12 10 10 9 9 8 7 8 7 3 3 3 3 6 8 5 5 6 7 7 6 7 6 5 5 4 4 4 4 3 2 2 2 2 2 0 0 1 1 0 3 0 4 2 3 4 3 3 5 8 12 14 11 9 8 9 9 7 8 11 10 10 12 9 2 1 3 3 8 10 11 12 12 11 10 9 6 4 5
10 4 3 3 2 3 4 4 7 8 7 9 9 8 7 9 10 6 3 3 5 3 4 8 6 3 3 4 6 6 6 5 6 4 3 3 3 2 1 3 5 4 2 1 1 0 2 1 1 4 2 4 1 4 2 4 5 7 13 18 18 12 9 10 9 8 9 11 11 10 9 10 6 1 3 5 8 10 9 10 11 9 7 6 6 5 6 6
15 9 6 2 1 2 3 1 4 6 6 7 8 8 8 8 7 7 4 2 3 3 3 6 7 4 2 3 5 5 7 10 10 8 6 5 4 5 5 4 6 5 4 3 1 1 3 3 1 3 2 3 0 5 3 4 5 7 11 13 13 10 9 9 8 9 11 10 7 7 8 8 5 3 4 4 5 8 8 8 6 4 3 5 8 9 9 8
Wind_Direction
207 204 203 207 208 216 216 221 229 235 247 248 256 260 261 268 273 275 279 284 287 290 295 298 302 305 307 309 312 314 316 317 315 313 310 310 300 285 327 68 60 359 337 329 311 236 210 198 257 252 281 301 220 235 227 224 206 134 93 115 230 223 213 212 205 301 274 245 293 309 330 26 356 342 332 300 259 262 272 278 281 280 273 274 286 297 292 283
227 225 229 229 232 237 238 243 246 250 258 259 262 264 266 269 271 274 277 281 283 286 289 292 296 298 300 303 306 309 312 315 313 313 313 312 126 109 91 76 13 349 325 311 305 228 180 80 12 203 241 280 235 223 210 204 194 177 139 145 222 211 228 266 293 319 333 298 300 315 337 357 326 323 327 304 267 271 270 274 279 281 281 284 292 295 292 290
237 240 245 246 249 252 255 260 262 264 267 269 271 272 274 276 276 278 280 282 284 286 288 291 293 295 298 300 304 308 312 315 315 319 2 121 116 103 80 8 334 333 324 294 275 212 166 75 314 226 221 248 228 218 205 190 195 202 181 171 241 226 259 285 297 314 319 314 313 320 321 318 308 313 316 292 280 280 261 267 274 279 286 293 297 293 295 302
246 249 253 254 257 260 263 266 268 270 272 273 276 277 278 280 281 283 284 285 287 288 291 293 294 295 298 300 303 306 315 319 315 332 119 145 125 86 4 327 317 319 312 272 259 208 177 204 258 231 217 237 235 224 208 197 203 193 176 192 235 230 265 276 287 304 309 315 314 308 314 311 306 307 299 288 293 281 255 263 270 278 287 293 294 292 292 297
256 257 259 260 262 263 265 267 269 271 273 274 276 277 280 281 283 286 287 288 289 290 292 293 295 296 298 300 303 306 321 332 314 144 169 184 181 302 310 311 309 308 284 246 248 214 195 205 213 225 224 240 243 220 214 211 210 197 204 217 228 235 258 270 285 298 300 304 303 304 309 301 302 297 286 281 273 269 271 276 278 281 287 290 290 292 291 291
261 263 264 266 267 269 270 271 274 275 276 278 279 281 283 284 286 287 288 289 290 291 293 294 296 297 299 301 302 306 311 289 230 203 227 242 267 286 297 302 303 300 265 228 231 211 202 202 201 225 218 228 238 219 244 230 213 219 247 231 234 241 247 272 287 296 297 292 284 291 293 291 298 293 284 272 263 275 284 286 284 284 286 288 287 287 288 287
262 263 266 268 270 272 274 275 277 278 279 281 282 285 286 287 288 289 290 291 292 294 295 295 297 296 300 300 301 303 268 261 275 264 264 272 276 284 293 297 296 284 243 213 222 208 202 202 205 227 217 229 240 224 258 263 224 216 257 245 241 248 256 278 290 295 298 288 277 289 292 286 280 283 287 275 275 285 292 293 289 287 288 288 286 285 286 285
264 265 268 270 272 274 275 277 279 281 283 284 287 288 289 291 291 292 292 293 294 295 296 296 297 297 301 300 302 296 264 277 295 281 276 276 276 285 289 291 283 258 233 211 221 210 207 212 216 232 226 237 254 252 285 306 262 218 247 255 252 271 281 290 295 293 294 290 287 291 284 275 268 273 280 277 283 293 300 301 298 294 291 285 285 288 289 288
265 268 269 271 273 275 276 278 280 283 285 286 289 290 291 293 293 294 294 295 297 298 299 299 298 299 301 299 300 288 276 292 306 291 282 276 272 276 277 283 271 252 239 218 219 208 207 221 233 234 233 269 278 289 317 349 296 271 296 306 303 301 297 297 299 293 290 286 284 281 274 275 274 278 277 275 285 301 303 301 299 296 290 282 283 289 293 292
266 268 269 271 272 274 276 278 280 282 284 287 289 292 294 295 296 297 297 298 300 300 300 299 299 298 297 295 282 262 287 300 300 292 283 269 265 263 268 274 268 263 250 230 220 210 210 224 247 244 257 291 288 291 315 303 276 314 329 325 308 303 302 298 295 289 286 282 275 259 259 272 272 273 267 276 292 303 298 298 298 293 287 287 289 291 293 294
267 268 269 271 271 272 274 276 280 283 285 289 292 295 297 298 300 299 299 300 299 301 301 298 298 296 294 291 253 243 285 293 284 283 275 271 271 267 269 270 268 265 252 236 219 213 217 227 247 254 262 281 296 308 315 291 284 315 330 331 308 308 307 296 288 283 280 279 268 241 238 271 272 206 250 273 296 301 294 297 298 292 289 292 296 299 303 306
266 267 269 270 271 273 275 278 282 285 288 292 294 296 298 298 299 298 298 299 299 299 297 296 296 293 294 285 264 266 285 285 276 273 268 272 274 271 276 277 272 261 250 238 218 214 221 231 243 245 249 262 323 327 316 298 311 319 320 327 303 318 311 285 276 274 269 263 261 223 223 279 260 233 251 271 295 299 296 295 292 291 295 300 310 319 326 325
265 267 268 270 271 273 276 281 284 287 290 292 294 294 295 295 295 296 296 297 297 296 294 293 289 289 287 276 275 282 286 280 272 265 263 266 269 271 276 277 273 257 248 240 223 219 224 235 242 244 255 264 285 290 289 301 319 319 311 169 296 335 310 275 272 272 268 257 233 180 160 275 243 250 259 281 294 298 304 296 291 294 300 310 321 333 2 21
267 268 269 270 272 275 279 282 284 286 288 289 291 291 291 292 293 294 296 296 294 292 291 287 284 285 275 269 281 285 278 273 265 259 260 263 264 269 271 270 268 254 242 236 230 227 227 234 241 249 259 260 271 280 294 312 315 307 308 108 273 291 279 278 282 277 278 243 191 168 195 260 247 263 270 291 294 294 299 295 295 296 302 315 323 350 68 74
272 271 272 272 273 276 278 279 280 281 283 285 287 288 290 291 294 295 295 293 291 289 286 283 282 281 271 273 281 281 273 265 257 258 260 260 261 263 264 262 259 248 232 230 231 230 233 235 237 245 256 263 271 281 322 344 313 283 281 304 271 205 262 293 294 270 231 213 171 162 224 259 256 267 272 291 291 291 295 292 292 299 313 323 336 76 96 82
274 272 270 271 271 272 272 272 274 276 280 284 286 290 292 294 297 296 292 289 286 284 282 282 279 268 265 279 281 275 271 261 257 260 254 252 253 254 258 257 250 241 226 226 230 231 239 243 240 238 241 256 241 169 36 2 317 304 202 248 255 228 257 300 304 293 158 128 182 208 236 261 271 264 265 280 284 287 291 289 293 311 329 353 74 99 92 82
271 269 267 267 267 267 267 269 273 278 282 286 289 290 293 296 297 292 288 284 280 277 276 273 267 261 260 268 274 273 272 268 263 255 244 244 249 250 253 248 231 221 211 218 227 228 234 226 201 218 225 225 163 117 52 334 283 294 238 229 241 237 241 265 303 321 111 123 234 251 234 246 268 271 268 273 279 282 283 286 297 314 347 80 95 87 80 74
267 264 263 263 263 265 267 273 279 285 288 293 295 295 297 297 293 287 282 279 275 273 273 249 224 261 264 254 273 288 284 269 254 243 234 231 235 237 229 229 221 192 181 207 219 197 198 199 166 161 226 199 164 134 175 230 220 240 242 239 261 252 242 250 273 295 317 284 270 275 264 257 269 277 275 275 276 274 275 285 299 314 76 96 88 80 76 71
264 261 261 262 263 266 272 281 288 291 293 294 294 296 299 296 289 281 270 267 260 251 266 226 199 220 256 265 292 296 287 269 248 240 241 236 236 238 224 221 223 194 164 171 208 178 168 152 129 152 220 207 210 192 206 221 212 223 236 238 256 256 257 257 254 268 294 304 287 274 271 272 280 278 279 283 283 280 287 300 311 87 101 94 84 81 76 72
262 261 261 261 263 269 276 286 289 293 296 296 297 298 302 304 300 279 257 259 253 251 270 260 249 258 261 274 288 287 279 274 263 256 255 247 236 233 217 196 192 190 173 161 188 186 170 150 164 191 205 209 217 215 218 229 224 232 249 254 255 249 263 264 260 275 306 314 264 260 285 295 291 291 287 288 292 301 306 326 93 103 98 90 85 82 78 77
260 259 259 260 262 269 277 285 290 294 298 304 310 308 310 334 320 291 292 284 272 268 271 269 265 264 264 268 271 271 273 273 267 259 256 241 218 209 200 180 161 198 219 179 143 165 171 185 218 210 210 214 223 225 227 241 240 240 242 249 259 245 250 255 260 277 315 333 260 289 338 308 293 294 285 287 301 327 326 94 108 103 94 90 88 84 82 82
256 255 257 261 264 272 278 287 293 294 301 306 311 310 309 325 297 299 311 293 281 277 269 266 264 261 261 262 262 264 263 261 258 247 241 226 201 195 193 172 160 207 209 160 111 138 189 225 238 225 218 222 241 243 238 248 248 254 256 252 264 256 272 287 285 299 9 11 269 312 327 290 287 275 277 293 331 30 65 104 107 100 96 90 88 88 87 86
251 251 256 262 266 273 277 283 288 295 303 296 295 292 296 323 320 320 319 284 283 285 272 266 263 259 258 258 257 253 244 243 253 244 238 223 195 197 197 172 182 209 187 171 159 171 199 229 236 234 224 223 251 256 251 258 259 255 255 261 268 269 293 285 295 326 343 271 250 296 300 284 283 268 284 348 65 76 82 94 92 91 95 92 92 92 90 89
245 247 255 261 262 265 266 273 280 283 280 275 283 282 312 332 335 333 317 272 276 285 274 266 261 260 258 251 245 238 232 236 249 243 233 220 199 198 204 187 188 203 205 199 187 195 212 218 225 230 219 205 231 256 255 254 270 261 226 219 246 260 232 228 278 333 330 322 334 4 332 295 261 261 288 61 84 82 81 87 85 87 93 95 96 93 91 91
242 242 249 253 255 254 251 260 263 253 257 254 267 308 344 337 340 341 323 288 283 273 266 257 246 251 247 237 230 222 228 241 236 231 216 210 200 195 212 201 193 205 221 214 203 212 235 236 228 233 239 206 203 243 239 208 252 292 237 214 222 239 240 239 331 15 16 335 314 47 16 293 271 270 263 105 89 71 72 80 84 88 92 94 94 91 93 92
239 237 240 247 249 243 243 256 241 216 225 196 175 39 339 325 344 348 338 329 299 255 225 213 211 225 216 214 206 194 214 257 222 211 198 199 198 192 218 212 193 206 218 214 221 226 227 232 226 223 240 218 192 238 228 168 166 280 249 207 191 193 194 153 54 46 79 250 277 69 104 269 287 279 260 120 93 78 73 73 82 88 88 91 92 94 97 96
236 234 240 251 254 249 253 260 230 206 203 196 192 204 303 305 354 0 6 349 292 211 143 165 186 174 168 170 168 158 160 201 167 182 189 192 199 194 211 230 182 212 230 127 240 260 197 196 171 145 191 182 185 241 230 160 145 237 241 139 113 121 138 155 128 175 225 246 309 301 176 251 277 255 248 112 99 92 87 79 82 87 88 90 91 93 96 97
237 237 245 255 262 258 252 244 226 209 200 197 209 225 255 303 327 43 68 323 289 122 133 168 131 163 162 162 170 157 133 155 136 185 194 198 207 192 216 238 174 257 279 131 192 266 192 172 187 147 135 167 200 235 204 147 146 237 221 127 111 132 150 174 160 210 255 330 306 262 185 231 270 262 203 117 119 128 124 117 105 99 97 96 95 95 95 96
235 241 249 255 256 246 230 223 219 206 197 193 202 220 230 11 48 73 99 238 304 75 163 182 94 161 151 143 182 191 158 160 133 186 195 207 209 189 224 243 185 296 280 165 198 260 260 175 194 145 141 203 217 243 169 147 183 231 174 102 65 89 134 157 144 144 347 329 249 236 187 193 268 290 97 122 144 160 146 131 120 111 105 103 103 104 102 100
236 242 249 249 239 222 210 209 207 196 190 186 186 193 156 129 103 89 189 217 22 53 143 145 114 155 144 121 186 204 184 175 133 135 153 196 196 196 269 273 9 44 325 356 258 253 255 88 164 156 195 202 176 153 86 141 169 119 89 57 23 7 17 36 99 103 61 287 245 226 198 185 268 293 186 174 190 163 148 138 131 116 110 109 108 108 106 104
236 241 246 243 227 212 204 201 199 199 195 183 186 180 137 106 89 160 208 239 28 159 124 132 216 154 158 150 155 184 172 159 151 138 125 127 166 212 315 323 12 53 6 337 300 283 324 43 246 221 213 177 123 113 22 41 112 99 77 69 31 338 6 30 3 46 98 251 260 241 200 180 223 267 278 311 238 149 144 148 146 130 121 118 115 114 110 107
230 231 234 230 215 202 195 190 193 206 205 188 187 169 122 67 237 195 217 359 15 196 151 185 220 178 184 152 133 173 169 167 175 164 165 151 148 200 204 182 166 56 336 262 271 320 293 232 238 260 232 179 130 123 325 357 40 87 90 96 81 318 359 16 308 43 201 245 258 238 148 171 224 257 3 356 25 105 119 130 136 134 130 125 121 119 114 112
218 217 216 207 198 195 193 197 211 221 207 182 173 140 102 205 221 190 202 238 237 191 120 133 191 147 116 91 147 176 151 185 184 176 177 156 160 222 233 226 188 146 241 217 264 324 301 295 251 121 294 199 153 149 224 294 96 139 142 143 152 164 149 259 259 258 264 266 263 245 86 236 251 333 33 12 34 93 110 121 130 132 132 129 127 124 118 115
208 206 207 201 196 199 199 210 226 226 206 180 159 115 134 216 224 178 201 226 257 21 50 56 63 30 22 136 203 159 83 269 184 165 181 157 162 228 233 242 223 188 187 199 240 208 241 305 227 178 242 179 170 188 180 149 160 183 166 145 150 162 172 209 221 217 248 275 282 283 299 222 217 10 37 52 68 94 110 122 128 130 132 132 130 127 122 116
205 201 203 204 206 209 212 222 225 219 201 179 154 137 200 213 217 176 207 235 275 38 3 2 75 62 331 286 261 168 148 251 182 132 185 177 185 217 196 209 213 195 168 184 235 189 199 261 239 210 179 159 176 215 157 113 104 224 148 123 174 191 168 192 218 188 180 278 288 261 245 194 139 82 65 81 79 91 108 121 125 128 134 136 133 131 127 121
211 207 209 213 216 217 221 223 218 210 195 174 150 222 217 212 189 177 194 220 169 120 44 338 75 111 286 281 287 279 168 207 253 94 247 220 222 229 209 213 204 188 177 179 218 213 209 260 260 36 64 172 173 214 167 143 213 222 114 172 226 188 136 130 270 212 128 250 258 202 204 35 86 106 96 92 87 99 115 126 131 136 140 141 140 138 136 131
217 216 218 220 219 221 222 219 212 204 192 175 193 230 212 215 207 196 189 100 140 137 122 331 200 187 233 244 266 265 183 273 257 154 243 254 252 215 200 242 267 189 195 190 220 231 199 267 269 158 183 223 169 104 316 346 127 127 166 220 238 30 75 97 250 304 285 251 262 239 225 217 185 210 161 134 144 150 161 152 140 142 148 151 151 149 146 140
225 226 229 227 225 223 220 219 213 202 190 181 229 233 203 204 213 203 222 243 245 192 133 207 224 190 201 212 251 246 185 217 217 170 213 253 246 210 190 202 32 27 196 165 178 262 153 278 284 220 172 237 37 63 318 343 52 125 176 233 108 77 310 15 141 216 239 245 269 275 253 229 205 194 175 181 183 175 178 167 152 160 168 167 162 159 158 152
229 232 239 237 231 225 221 220 211 202 197 198 225 231 207 211 232 224 224 233 182 160 185 215 215 219 216 202 226 239 196 195 203 189 184 209 233 234 142 148 100 16 30 120 156 261 91 195 278 305 153 191 37 60 211 280 349 55 61 343 51 155 187 214 195 180 205 239 257 271 267 254 236 195 170 181 186 174 172 171 176 187 184 178 172 170 174 178
227 226 244 237 232 227 213 206 202 200 209 227 218 222 128 215 243 232 230 236 199 180 219 211 196 222 239 225 224 229 210 206 205 202 204 214 243 294 52 99 145 55 33 63 109 76 49 184 246 313 343 87 74 196 188 192 185 77 75 279 272 207 191 260 245 164 162 217 236 254 259 253 261 202 168 178 178 167 170 171 186 196 190 185 183 180 184 190
219 219 242 220 223 218 190 182 195 203 220 260 230 215 223 238 253 234 235 239 236 228 226 204 199 218 230 239 229 201 207 230 215 212 231 232 243 255 212 94 102 175 62 48 68 126 95 183 203 281 309 205 228 218 159 145 144 134 163 193 183 177 169 266 261 210 153 208 211 234 261 266 278 276 161 165 162 162 172 172 184 194 188 185 187 188 191 197
209 220 231 203 207 198 174 169 205 208 213 235 214 203 216 227 240 226 225 228 227 227 223 214 212 215 220 233 226 195 209 231 219 217 235 232 222 220 187 136 102 122 109 97 241 210 110 114 146 251 236 215 236 235 124 131 145 137 154 179 152 154 150 196 240 239 70 277 214 200 258 269 283 302 91 133 149 164 174 178 184 186 182 183 188 189 193 195
206 212 210 197 193 181 169 173 219 205 228 237 206 218 224 224 234 220 204 209 215 214 215 217 211 214 222 221 217 215 213 218 224 224 232 237 225 214 163 155 129 77 101 129 262 5 89 96 144 271 283 283 293 332 22 59 116 120 347 337 160 177 171 183 211 190 168 265 291 299 253 234 283 325 72 117 143 162 175 183 182 177 179 187 190 189 195 190
211 217 215 208 187 177 176 208 208 202 230 234 232 240 238 239 237 227 199 194 200 195 208 225 214 213 220 213 214 219 206 216 245 236 222 223 218 160 129 172 184 146 117 182 196 172 167 124 124 152 306 304 310 332 354 7 65 128 237 256 185 152 137 139 165 156 212 224 222 239 245 224 157 131 123 129 147 173 196 202 189 183 190 196 192 189 193 185
198 218 221 209 189 186 201 224 196 206 223 223 235 236 236 244 236 230 223 207 207 201 201 227 217 209 210 208 218 223 212 222 247 246 208 204 202 112 83 39 196 170 121 171 156 152 175 187 137 156 231 249 260 252 199 35 57 142 224 240 213 172 168 171 183 215 235 220 211 228 243 266 275 215 192 193 195 222 234 228 214 206 204 199 193 189 190 184
180 198 202 192 190 200 221 228 211 225 217 209 230 228 225 239 242 228 218 217 222 215 211 229 215 208 212 207 217 233 230 227 230 241 212 181 207 327 74 93 132 138 116 115 131 131 131 207 190 194 220 237 242 215 150 110 105 258 265 253 242 222 199 191 205 219 224 261 257 243 226 250 273 264 237 195 201 229 237 218 206 203 203 201 197 194 190 187
184 197 180 170 189 211 226 227 218 223 223 210 227 234 220 223 236 224 212 214 216 211 220 247 206 201 210 205 213 233 229 222 227 236 220 181 155 347 58 95 101 119 121 103 89 100 102 261 234 203 227 250 246 216 127 104 166 232 256 263 259 249 215 192 205 216 194 266 265 257 242 234 256 265 260 201 203 238 256 234 214 199 192 191 188 188 191 195
195 248 200 175 182 213 219 216 210 214 232 227 234 275 239 217 209 214 213 214 209 204 211 241 218 211 205 193 203 220 214 219 231 225 205 187 166 100 343 6 75 130 124 78 37 91 116 242 246 177 234 267 293 8 49 87 172 219 245 267 268 263 244 204 204 219 216 236 256 264 271 265 261 270 274 249 250 255 250 245 226 194 181 182 181 182 190 198
211 266 245 199 208 240 224 206 200 209 228 228 229 252 244 228 224 227 211 200 215 212 208 217 223 215 205 193 191 202 205 206 219 220 196 178 179 177 184 309 285 154 121 84 55 109 117 244 253 136 232 274 313 31 57 67 315 263 258 259 262 265 262 232 221 229 226 239 255 260 268 267 263 264 270 276 276 220 172 172 169 164 164 168 168 169 178 189
203 247 262 259 271 265 249 206 190 199 222 222 226 238 235 234 237 239 232 182 194 233 219 211 200 190 199 192 184 210 226 206 204 219 195 172 187 191 190 204 175 138 105 89 215 226 121 172 335 88 36 293 324 61 56 31 320 297 283 268 262 266 274 264 247 242 242 249 253 255 261 265 267 271 179 211 163 131 126 127 137 147 154 161 169 180 197 210
204 225 284 316 302 243 245 215 181 191 215 216 224 230 224 230 227 225 275 225 183 192 216 200 181 160 159 155 169 216 226 184 168 161 121 140 173 146 132 171 148 131 139 155 173 20 104 157 346 65 71 283 341 80 42 343 342 307 279 268 262 258 258 256 246 233 230 237 246 251 252 258 269 29 117 138 128 122 120 120 128 139 152 175 208 238 250 242
214 232 251 265 322 250 232 200 172 196 206 199 210 221 225 233 217 199 241 266 157 164 196 172 154 134 150 178 177 175 147 129 124 112 85 67 73 72 81 131 144 142 156 162 159 141 130 144 148 108 146 274 59 122 130 25 359 292 265 256 254 245 234 240 245 236 228 222 225 232 236 245 242 190 167 152 132 137 142 139 143 157 185 234 253 264 269 252